Location: Toronto
(43.6667°N, 79.4167°W)
Time: 22:07:49
(UTC-05:00)

Envisat - Pass Details

Date: 09 December 2022
Orbit: 763 x 765 km, 98.2° (Epoch: 07 February)

Event Time Altitude Azimuth Distance (km) Brightness Sun altitude
Rises 05:36:12 0° 2° (N) 3,243 6.2 -21.5°
Reaches altitude 10° 05:38:48 10° 351° (N) 2,313 5.3 -21.0°
Enters shadow 05:38:49 10° 350° (N) 2,308 5.3 -21.0°
